Montpellier, France

8:54 AM CET on December 11, 2016 (GMT +0100)
Montpellier / Mediterranee

Weather History for LFMT - August, 2013

Change the Weather History Date:

Wednesday, August 21, 2013

  Actual Average Record
Temperature  
Mean Temperature 74 °F -  
Max Temperature 84 °F 76 °F 93 °F (2010)
Min Temperature 64 °F 60 °F 59 °F (2014)
Cooling Degree Days 9    
Growing Degree Days 24 (Base 50)    
Moisture  
Dew Point 52 °F    
Average Humidity 45    
Maximum Humidity 73    
Minimum Humidity 28    
Precipitation  
Precipitation 0.00 in - - ()
Sea Level Pressure  
Sea Level Pressure 30.08 in    
Wind  
Wind Speed 9 mph ()    
Max Wind Speed 17 mph    
Max Gust Speed -    
Visibility 6.2 miles    
Events      
Averages and records for this station are not official NWS values.
T = Trace of Precipitation, MM = Missing Value Source: Averaged Metar Reports

Daily Weather History Graph

Daily Weather History Graph

Search for Another Location

Airport or City:

Trip Planner

Search our weather history database for the weather conditions in past years. The results will help you decide how hot, cold, wet, or windy it might be!

Date:

Astronomy

Aug. 21, 2013 Rise Set
Actual Time 6:55 AM CEST 8:38 PM CEST
Civil Twilight 6:25 AM CEST 9:08 PM CEST
Nautical Twilight 5:48 AM CEST 9:45 PM CEST
Astronomical Twilight 5:08 AM CEST 10:24 PM CEST
Moon 8:33 PM CEST (8/21) 7:19 AM CEST (8/21)
Length of Visible Light 14h 43m
Length of Day
13h 42m
Full, 100% of the Moon is Illuminated
Aug 21
Full
Aug 28
Last Quarter
Sep 5
New
Sep 12
First Quarter
Sep 19
Full

Hourly Weather History & Observations

Time (CEST) Temp. Heat Index Dew Point Humidity Pressure Visibility Wind Dir Wind Speed Gust Speed Precip Events Conditions
12:00 AM 75.2 °F - 46.4 °F 36% 30.12 in - North 12.7 mph - N/A   Clear
12:30 AM 75.2 °F - 46.4 °F 36% 30.12 in - North 9.2 mph - N/A   Clear
1:00 AM 75.2 °F - 46.4 °F 36% 30.12 in - North 8.1 mph - N/A   Clear
1:30 AM 73.4 °F - 46.4 °F 38% 30.12 in 6.2 mi North 11.5 mph - N/A   Unknown
2:00 AM 73 °F - 47 °F 28% 30.12 in 37 mi North 9.2 mph - -   Clear
2:00 AM 73.4 °F - 46.4 °F 38% 30.09 in 6.2 mi North 9.2 mph - N/A   Unknown
2:30 AM 71.6 °F - 46.4 °F 41% 30.12 in 6.2 mi North 8.1 mph - N/A   Unknown
3:00 AM 71.6 °F - 46.4 °F 41% 30.12 in 6.2 mi North 9.2 mph - N/A   Unknown
3:30 AM 69.8 °F - 48.2 °F 46% 30.09 in 6.2 mi North 11.5 mph - N/A   Unknown
4:00 AM 69.8 °F - 48.2 °F 46% 30.09 in 6.2 mi North 9.2 mph - N/A   Unknown
4:30 AM 68.0 °F - 46.4 °F 46% 30.09 in 6.2 mi North 9.2 mph - N/A   Unknown
5:00 AM 68.0 °F - 46.4 °F 46% 30.09 in - North 10.4 mph - N/A   Clear
6:00 AM 66.2 °F - 46.4 °F 49% 30.09 in - North 9.2 mph - N/A   Clear
6:30 AM 64.4 °F - 46.4 °F 52% 30.09 in - North 9.2 mph - N/A   Clear
7:00 AM 64.4 °F - 46.4 °F 52% 30.09 in - North 8.1 mph - N/A   Clear
7:30 AM 66.2 °F - 46.4 °F 49% 30.09 in - NNE 5.8 mph - N/A   Clear
8:00 AM 67 °F - 47 °F 38% 30.11 in 37 mi North 11.5 mph - -  
8:00 AM 66.2 °F - 48.2 °F 52% 30.09 in - NNE 10.4 mph - N/A   Clear
8:30 AM 69.8 °F - 48.2 °F 46% 30.09 in - NNE 13.8 mph - N/A   Clear
9:00 AM 71.6 °F - 48.2 °F 43% 30.09 in - NNE 13.8 mph - N/A   Clear
10:00 AM 75.2 °F - 48.2 °F 38% 30.09 in - North 17.3 mph - N/A   Clear
10:30 AM 77.0 °F - 48.2 °F 36% 30.09 in - NNE 13.8 mph - N/A   Clear
11:00 AM 78.8 °F - 48.2 °F 34% 30.09 in - NNE 11.5 mph - N/A   Clear
11:30 AM 80.6 °F - 50.0 °F 34% 30.09 in - North 12.7 mph - N/A   Clear
12:00 PM 80.6 °F - 50.0 °F 34% 30.09 in - NNE 9.2 mph - N/A   Clear
12:30 PM 84.2 °F - 50.0 °F 30% 30.09 in - NE 8.1 mph - N/A   Clear
1:00 PM 84.2 °F - 48.2 °F 29% 30.09 in - East 8.1 mph - N/A   Clear
1:30 PM 84.2 °F 82.8 °F 53.6 °F 35% 30.09 in - SE 8.1 mph - N/A   Clear
2:00 PM 83 °F - 58 °F 32% 30.10 in 37 mi South 8.1 mph - -  
2:00 PM 82.4 °F 82.0 °F 57.2 °F 42% 30.09 in - South 8.1 mph - N/A   Clear
2:30 PM 82.4 °F 82.0 °F 57.2 °F 42% 30.06 in - South 6.9 mph - N/A   Clear
3:00 PM 82.4 °F 82.0 °F 57.2 °F 42% 30.06 in - SSE 9.2 mph - N/A   Clear
3:30 PM 82.4 °F 82.0 °F 57.2 °F 42% 30.06 in - SSE 12.7 mph - N/A   Clear
4:00 PM 82.4 °F 82.0 °F 57.2 °F 42% 30.06 in - SSE 12.7 mph - N/A   Clear
4:30 PM 82.4 °F 81.7 °F 55.4 °F 39% 30.06 in - South 10.4 mph - N/A   Clear
5:00 PM 82.4 °F 81.4 °F 53.6 °F 37% 30.06 in - South 10.4 mph - N/A   Clear
5:30 PM 82.4 °F 81.7 °F 55.4 °F 39% 30.06 in - South 10.4 mph - N/A   Clear
6:00 PM 80.6 °F 80.8 °F 57.2 °F 45% 30.04 in - South 9.2 mph - N/A   Clear
6:30 PM 80.6 °F 80.5 °F 55.4 °F 42% 30.04 in - South 9.2 mph - N/A   Clear
7:00 PM 78.8 °F - 57.2 °F 47% 30.04 in - SSW 9.2 mph - N/A   Clear
7:30 PM 78.8 °F - 57.2 °F 47% 30.04 in - SSW 8.1 mph - N/A   Clear
8:00 PM 77 °F - 59 °F 44% 30.05 in 37 mi SW 6.9 mph - -  
8:00 PM 77.0 °F - 59.0 °F 54% 30.04 in - SW 6.9 mph - N/A   Clear
8:30 PM 75.2 °F - 60.8 °F 61% 30.04 in - SW 5.8 mph - N/A   Clear
9:00 PM 73.4 °F - 62.6 °F 69% 30.04 in - WSW 3.5 mph - N/A   Clear
9:30 PM 73.4 °F - 62.6 °F 69% 30.04 in - SW 4.6 mph - N/A   Clear
10:00 PM 71.6 °F - 60.8 °F 69% 30.06 in - Variable 2.3 mph - N/A   Clear
10:30 PM 71.6 °F - 60.8 °F 69% 30.06 in - West 1.2 mph - N/A   Clear
11:00 PM 71.6 °F - 59.0 °F 64% 30.06 in - Calm Calm - N/A   Clear
11:30 PM 68.0 °F - 59.0 °F 73% 30.06 in - North 1.2 mph - N/A   Clear